Darstellungsparameter: Aktuell verwendete Einstellungen:
Skalierung der Graphiken ... ?
xyx+y,   Skalierungsfaktor:      Skalierung: Modus: x, Faktor: 1
Darstellungszeitraum ... ?
Vom - - bis: - -   Zeitraum: 25.04.2010 - 24.04.2020
Min/Max/Avg-Anzeige ... ?
Zeige MMA aktuell
Zeige MMA Monat
Zeige MMA alles
Zeige --A aktuell
Zeige --A Monat
Zeige --A alles
Keine MMA-Anzeige
MMA:
Keine MMA-Graphiken
MMA-Basis: 25.04.2010 - 24.04.2020
Quicknavigation für Darstellung... ?
Tage:      1T, 2T, 3T, 5T -1T -2T -3T -5T +1T +2T +3T +5T
Wochen: 1W, 2W, 3W -1W -2W -3W +1W +2W +3W
Monate: 1M, 3M, 6M -1M -3M -6M +1M +3M +6M
Jahre:    1J, 3J, 5J, 10J -1J -3J -5J -10J +1J +3J +5J +10J
Nutze für die Darstellung ... ?
Originaldaten oder ...
Mittelwerte Minima Maxima auf...
Stundenbasis Tagesbasis Wochenbasis
Monatsbasis Jahresbasis      Datenbasis: Maxima auf Monatsbasis
Darstellen als:
Statistik (Auto) Statistik J:M      Darstellung:
Zur Graphik,    zurück zur Übersicht aller Sensoren.
 
Tabellarische Datenbersicht: ?
 
Sensor: Nr:Datum:Temp:Feuchte:
Aussen-T/F 1 01-02-2012 00:00:00 15.9 C 93 %
2 01-03-2012 00:00:00 28.2 C 93 %
3 01-04-2012 00:00:00 35.9 C 95 %
4 01-05-2012 00:00:00 37.2 C 93 %
5 01-06-2012 00:00:00 35.9 C 91 %
6 01-07-2012 00:00:00 42.4 C 91 %
7 01-08-2012 00:00:00 44 C 90 %
8 01-09-2012 00:00:00 37 C 94 %
9 01-10-2012 00:00:00 23.8 C 95 %
10 01-11-2012 00:00:00 15.1 C 95 %
11 01-12-2012 00:00:00 13.8 C 95 %
12 01-01-2013 00:00:00 14 C 92 %
13 01-02-2013 00:00:00 12 C 95 %
14 01-03-2013 00:00:00 22.8 C 94 %
15 01-04-2013 00:00:00 36.1 C 93 %
16 01-05-2013 00:00:00 32.9 C 94 %
17 01-06-2013 00:00:00 42.1 C 92 %
18 01-07-2013 00:00:00 42.8 C 91 %
19 01-08-2013 00:00:00 44.6 C 91 %
20 01-09-2013 00:00:00 38.4 C 93 %
21 01-10-2013 00:00:00 22 C 95 %
22 01-11-2013 00:00:00 16.9 C 95 %
23 01-12-2013 00:00:00 13.5 C 95 %
24 01-01-2014 00:00:00 12.8 C 95 %
25 01-02-2014 00:00:00 17 C 95 %
Sensor: Nr:Datum:Temp:Feuchte:
Aussen-T/F 26 01-03-2014 00:00:00 29.8 C 95 %
27 01-04-2014 00:00:00 36.9 C 95 %
28 01-05-2014 00:00:00 36.9 C 93 %
29 01-06-2014 00:00:00 43.8 C 92 %
30 01-07-2014 00:00:00 43.2 C 92 %
31 01-08-2014 00:00:00 37.7 C 93 %
32 01-09-2014 00:00:00 32.7 C 94 %
33 01-10-2014 00:00:00 21.9 C 95 %
34 01-11-2014 00:00:00 15.6 C 95 %
35 01-12-2014 00:00:00 13.4 C 95 %
36 01-01-2015 00:00:00 14.7 C 95 %
37 01-02-2015 00:00:00 11.2 C 95 %
38 01-03-2015 00:00:00 18.6 C 95 %
39 01-04-2015 00:00:00 29.1 C 94 %
40 01-05-2015 00:00:00 28.8 C 95 %
41 01-06-2015 00:00:00 43.9 C 93 %
42 01-07-2015 00:00:00 44.1 C 90 %
43 01-08-2015 00:00:00 43.7 C 91 %
44 01-09-2015 00:00:00 26.6 C 93 %
45 01-10-2015 00:00:00 23.3 C 95 %
46 01-11-2015 00:00:00 19 C 95 %
47 01-12-2015 00:00:00 14.1 C 94 %
48 01-01-2016 00:00:00 12.7 C 93 %
49 01-02-2016 00:00:00 13.9 C 88 %
50 01-03-2016 00:00:00 23.2 C 85 %
Sensor: Nr:Datum:Temp:Feuchte:
Aussen-T/F 51 01-04-2016 00:00:00 31.6 C 80 %
52 01-05-2016 00:00:00 37 C 71 %
53 01-06-2016 00:00:00 42.4 C 70 %
54 01-07-2016 00:00:00 40.4 C 65 %
55 01-08-2016 00:00:00 42.4 C 65 %
56 01-09-2016 00:00:00 36.1 C 71 %
57 01-10-2016 00:00:00 22.5 C 74 %
58 01-11-2016 00:00:00 14.1 C 75 %
59 01-12-2016 00:00:00 11 C 75 %
60 01-01-2017 00:00:00 6.6 C 75 %
61 01-02-2017 00:00:00 15 C 74 %
62 01-03-2017 00:00:00 31 C 75 %
63 01-04-2017 00:00:00 36.4 C 49 %
64 01-05-2017 00:00:00 45.2 C 65 %
65 01-06-2017 00:00:00 46.2 C 62 %
66 01-07-2017 00:00:00 41.9 C 66 %
67 01-08-2017 00:00:00 37.2 C 68 %
68 01-09-2017 00:00:00 26.1 C 73 %
69 01-10-2017 00:00:00 22.3 C 73 %
70 01-11-2017 00:00:00 14.7 C 78 %
71 01-12-2017 00:00:00 13.8 C 77 %
72 01-01-2018 00:00:00 13.1 C 78 %
73 01-02-2018 00:00:00 8.8 C 77 %
74 01-03-2018 00:00:00 19 C 78 %
75 01-04-2018 00:00:00 39.4 C 72 %
Sensor: Nr:Datum:Temp:Feuchte:
Aussen-T/F 76 01-05-2018 00:00:00 38.3 C 65 %
77 01-06-2018 00:00:00 34.5 C 62 %
78 01-07-2018 00:00:00 39.8 C 63 %
79 01-08-2018 00:00:00 40.7 C 64 %
80 01-09-2018 00:00:00 31.4 C 69 %
81 01-10-2018 00:00:00 23.5 C 73 %
82 01-11-2018 00:00:00 18.2 C 75 %
83 01-12-2018 00:00:00 13.7 C 74 %
84 01-01-2019 00:00:00 8.8 C 71 %
85 01-02-2019 00:00:00 17.2 C 75 %
86 01-03-2019 00:00:00 23 C 74 %
87 01-04-2019 00:00:00 28.1 C 73 %
88 01-05-2019 00:00:00 28.7 C 70 %
89 01-06-2019 00:00:00 38.7 C 65 %
90 01-07-2019 00:00:00 40.5 C 65 %
91 01-08-2019 00:00:00 34.5 C 64 %
92 01-09-2019 00:00:00 31.8 C 64 %
93 01-10-2019 00:00:00 25.7 C 42 %
94 01-11-2019 00:00:00 16.8 C 45 %
95 01-12-2019 00:00:00 13.8 C 46 %
96 01-01-2020 00:00:00 14.8 C 48 %
97 01-02-2020 00:00:00 20 C 49 %
98 01-03-2020 00:00:00 25.8 C 50 %
99 01-04-2020 00:00:00 33.2 C 49 %
Sensor: Nr:Datum:Temp:Feuchte:
G-T/H 1 01-02-2012 00:00:00 9.5 C 83 %
2 01-03-2012 00:00:00 15.8 C 84 %
3 01-04-2012 00:00:00 21 C 84 %
4 01-05-2012 00:00:00 21.6 C 82 %
5 01-06-2012 00:00:00 23.3 C 84 %
6 01-07-2012 00:00:00 28 C 95 %
7 01-08-2012 00:00:00 28.5 C 73 %
8 01-09-2012 00:00:00 20 C 78 %
9 01-10-2012 00:00:00 16.7 C 84 %
10 01-11-2012 00:00:00 11.6 C 79 %
11 01-12-2012 00:00:00 10.4 C 81 %
12 01-01-2013 00:00:00 11.7 C 81 %
13 01-02-2013 00:00:00 9.1 C 81 %
14 01-03-2013 00:00:00 11.3 C 77 %
15 01-04-2013 00:00:00 18.9 C 73 %
16 01-05-2013 00:00:00 19.5 C 75 %
17 01-06-2013 00:00:00 28.9 C 75 %
18 01-07-2013 00:00:00 28.2 C 84 %
19 01-08-2013 00:00:00 29.7 C 78 %
20 01-09-2013 00:00:00 25 C 78 %
21 01-10-2013 00:00:00 17.6 C 84 %
22 01-11-2013 00:00:00 13.6 C 78 %
23 01-12-2013 00:00:00 10.8 C 76 %
24 01-01-2014 00:00:00 10.6 C 77 %
25 01-02-2014 00:00:00 10.2 C 76 %
Sensor: Nr:Datum:Temp:Feuchte:
G-T/H 26 01-03-2014 00:00:00 14.7 C 75 %
27 01-04-2014 00:00:00 19.1 C 73 %
28 01-05-2014 00:00:00 23.6 C 71 %
29 01-06-2014 00:00:00 22.7 C 72 %
30 01-07-2014 00:00:00 28.5 C 74 %
31 01-08-2014 00:00:00 23.3 C 78 %
32 01-09-2014 00:00:00 21 C 84 %
33 01-10-2014 00:00:00 18.1 C 84 %
34 01-11-2014 00:00:00 13.7 C 81 %
35 01-12-2014 00:00:00 11 C 79 %
36 01-01-2015 00:00:00 11.8 C 78 %
37 01-02-2015 00:00:00 8.7 C 73 %
38 01-03-2015 00:00:00 10.8 C 73 %
39 01-04-2015 00:00:00 19.4 C 71 %
40 01-05-2015 00:00:00 16.2 C 72 %
41 01-06-2015 00:00:00 21.9 C 72 %
42 01-07-2015 00:00:00 28.1 C 78 %
43 01-08-2015 00:00:00 23.5 C 78 %
44 01-09-2015 00:00:00 21 C 74 %
45 01-10-2015 00:00:00 15.4 C 77 %
46 01-11-2015 00:00:00 14.1 C 79 %
47 01-12-2015 00:00:00 12.3 C 77 %
48 01-01-2016 00:00:00 10.4 C 77 %
49 01-02-2016 00:00:00 11 C 75 %
50 01-03-2016 00:00:00 11.8 C 74 %
Sensor: Nr:Datum:Temp:Feuchte:
G-T/H 51 01-04-2016 00:00:00 14.9 C 73 %
52 01-05-2016 00:00:00 21 C 72 %
53 01-06-2016 00:00:00 22.5 C 75 %
54 01-07-2016 00:00:00 25.6 C 71 %
55 01-08-2016 00:00:00 26.1 C 73 %
56 01-09-2016 00:00:00 24.5 C 71 %
57 01-10-2016 00:00:00 16.8 C 76 %
58 01-11-2016 00:00:00 11.5 C 75 %
59 01-12-2016 00:00:00 9.8 C 76 %
60 01-01-2017 00:00:00 9.6 C 76 %
61 01-02-2017 00:00:00 10.2 C 74 %
62 01-03-2017 00:00:00 17 C 73 %
63 01-04-2017 00:00:00 14.2 C 66 %
64 01-05-2017 00:00:00 28.4 C 82 %
65 01-06-2017 00:00:00 29 C 70 %
66 01-07-2017 00:00:00 28.1 C 73 %
67 01-08-2017 00:00:00 24.6 C 82 %
68 01-09-2017 00:00:00 21 C 80 %
69 01-10-2017 00:00:00 16.8 C 85 %
70 01-11-2017 00:00:00 12 C 76 %
71 01-12-2017 00:00:00 28.8 C 78 %
72 01-01-2018 00:00:00 11.8 C 76 %
73 01-02-2018 00:00:00 9.5 C 72 %
74 01-03-2018 00:00:00 11.6 C 78 %
75 01-04-2018 00:00:00 21.2 C 71 %
Sensor: Nr:Datum:Temp:Feuchte:
G-T/H 76 01-05-2018 00:00:00 22.3 C 71 %
77 01-06-2018 00:00:00 25.4 C 72 %
78 01-07-2018 00:00:00 29.7 C 72 %
79 01-08-2018 00:00:00 28.8 C 72 %
80 01-09-2018 00:00:00 23.9 C 74 %
81 01-10-2018 00:00:00 18.6 C 80 %
82 01-11-2018 00:00:00 13.7 C 77 %
83 01-12-2018 00:00:00 12.1 C 77 %
84 01-01-2019 00:00:00 9.7 C 77 %
85 01-02-2019 00:00:00 9.7 C 78 %
86 01-03-2019 00:00:00 14.5 C 78 %
87 01-04-2019 00:00:00 20.2 C 77 %
88 01-05-2019 00:00:00 20.9 C 74 %
89 01-06-2019 00:00:00 29.4 C 75 %
90 01-07-2019 00:00:00 27.1 C 78 %
91 01-08-2019 00:00:00 25.7 C 74 %
92 01-09-2019 00:00:00 21.3 C 74 %
93 01-10-2019 00:00:00 18.8 C 83 %
94 01-11-2019 00:00:00 13.5 C 76 %
95 01-12-2019 00:00:00 11.1 C 77 %
96 01-01-2020 00:00:00 11.1 C 77 %
97 01-02-2020 00:00:00 13.8 C 77 %
98 01-03-2020 00:00:00 13.9 C 77 %
99 01-04-2020 00:00:00 18.8 C 68 %

Maximal/Minimal-Werte vom 25.04.2010 - 24.04.2020

Sensor Min Max Avg
Temp
(Aussen-T/F)
-19.1 °C
07-02-2012  07:16:02
46.2 °C
19-06-2017  18:30:17
10.9 °C
Feuchte
(Aussen-T/F)
20 %
05-02-2012  20:56:16
95 %
13-04-2012  06:01:01
51.41 %
Temp
(G-T/H)
-6 °C
01-12-2016  10:32:18
29.7 °C
02-08-2013  17:35:01
13.12 °C
Feuchte
(G-T/H)
25 %
29-06-2019  18:04:17
95 %
25-07-2012  18:03:01
67.93 %

Warnung:
When displaying minima or maxima values for days, weeks, months or years no virtual sensors will be displayed.



Die Daten stammen von einer Davis Vantage Pro 2 Wetter-Station und werden unter Linux mit der Software wview2wettercgi und aufbereitet. Alle Angaben erfolgen ohne Gewähr für ihre Vollständigkeit oder Richtigkeit.
Kontakt: Rainer Krienke krienke@uni-koblenz.de . Meine Webseiten an der Uni Koblenz oder privat.
Version: $Revision: 0.78 $